Location: Alto Pass Reservoir
(37.5801°N, 89.3084°W)
Time: 15:13:49
(UTC+00:00)

Cosmos 1544 - Pass Details

Date: 08 December 2021
Orbit: 468 x 483 km, 82.5° (Epoch: 19 January)

Event Time Altitude Azimuth Distance (km) Brightness Sun altitude
Rises 23:47:20 0° 1° (N) 2,539 6.5 -13.3°
Reaches altitude 10° 23:49:32 10° 10° (N) 1,659 5.5 -13.7°
Maximum altitude 23:52:56 37° 79° (E) 759 3.5 -14.3°
Drops below altitude 10° 23:56:19 10° 149° (SSE) 1,656 5.6 -15.0°
Sets 23:58:31 0° 157° (SSE) 2,533 6.7 -15.4°
